Location: Niedergestelen
(46.3129°N, 7.7822°E)
Time: 14:30:12
(UTC+00:00)

Cosmos 1933 - Pass Details

Date: 01 December 2020
Orbit: 546 x 564 km, 82.5° (Epoch: 27 January)

Event Time Altitude Azimuth Distance (km) Brightness Sun altitude
Rises 16:27:16 0° 176° (S) 2,719 7.1 -7.4°
Reaches altitude 10° 16:29:27 10° 172° (S) 1,833 6.2 -7.8°
Maximum altitude 16:33:23 54° 95° (E) 682 3.5 -8.4°
Drops below altitude 10° 16:37:23 10° 18° (NNE) 1,859 5.6 -9.0°
Sets 16:39:36 0° 14° (NNE) 2,762 6.5 -9.4°
